TimeCDT,TemperatureF,Dew PointF,Humidity,Sea Level PressureIn,VisibilityMPH,Wind Direction,Wind SpeedMPH,Gust SpeedMPH,PrecipitationIn,Events,Conditions,WindDirDegrees,DateUTC
12:15 AM,62.6,61.0,94,29.87,10.0,SE,12.7,-,N/A,,Mostly Cloudy,140,2013-05-09 05:15:00
12:55 AM,62.2,60.4,94,29.88,10.0,SE,10.4,-,N/A,Thunderstorm,Mostly Cloudy,140,2013-05-09 05:55:00
1:35 AM,61.9,61.9,100,29.92,10.0,NNW,11.5,-,N/A,Thunderstorm,Thunderstorm,330,2013-05-09 06:35:00
1:55 AM,65.7,56.5,72,29.90,10.0,ENE,6.9,17.3,N/A,Thunderstorm,Thunderstorm,70,2013-05-09 06:55:00
2:15 AM,62.4,52.2,69,29.91,10.0,NW,9.2,-,N/A,Rain-Thunderstorm,Light Thunderstorms and Rain,320,2013-05-09 07:15:00
2:35 AM,60.8,54.5,80,29.88,10.0,NE,4.6,-,N/A,Rain-Thunderstorm,Light Thunderstorms and Rain,40,2013-05-09 07:35:00
3:15 AM,56.5,56.5,100,29.90,10.0,NNE,4.6,-,N/A,Rain-Thunderstorm,Light Thunderstorms and Rain,20,2013-05-09 08:15:00
3:55 AM,56.3,56.3,100,29.89,10.0,ENE,4.6,-,N/A,,Mostly Cloudy,60,2013-05-09 08:55:00
4:55 AM,55.4,55.4,100,29.88,10.0,East,11.5,-,N/A,Thunderstorm,Mostly Cloudy,90,2013-05-09 09:55:00
5:55 AM,55.4,55.4,100,29.91,10.0,East,6.9,-,N/A,,Overcast,80,2013-05-09 10:55:00
6:35 AM,55.9,55.9,100,29.91,10.0,ESE,9.2,-,N/A,,Overcast,110,2013-05-09 11:35:00
6:55 AM,55.9,55.9,100,29.91,10.0,ESE,8.1,-,N/A,,Scattered Clouds,120,2013-05-09 11:55:00
7:15 AM,56.1,56.1,100,29.92,10.0,Calm,Calm,-,N/A,,Scattered Clouds,0,2013-05-09 12:15:00
9:55 AM,62.4,61.7,97,29.96,10.0,ENE,6.9,-,N/A,,Overcast,70,2013-05-09 14:55:00
10:15 AM,63.3,62.2,96,29.96,10.0,East,5.8,-,N/A,,Mostly Cloudy,80,2013-05-09 15:15:00
10:35 AM,65.5,61.7,88,29.96,10.0,East,4.6,-,N/A,,Scattered Clouds,80,2013-05-09 15:35:00
10:55 AM,66.9,61.9,84,29.96,10.0,East,5.8,-,N/A,,Scattered Clouds,90,2013-05-09 15:55:00
11:15 AM,66.0,61.5,85,29.97,10.0,ENE,3.5,-,N/A,,Mostly Cloudy,70,2013-05-09 16:15:00
11:35 AM,66.0,61.7,86,29.97,10.0,NE,5.8,-,N/A,,Overcast,40,2013-05-09 16:35:00
11:55 AM,65.3,62.4,90,29.97,10.0,NE,8.1,-,N/A,,Overcast,40,2013-05-09 16:55:00
12:15 PM,65.3,62.2,90,29.96,10.0,NE,9.2,-,N/A,,Overcast,40,2013-05-09 17:15:00
1:15 PM,64.8,61.9,90,29.97,10.0,North,8.1,-,N/A,,Overcast,10,2013-05-09 18:15:00
1:35 PM,65.3,62.1,89,29.98,10.0,NNE,6.9,-,N/A,,Overcast,30,2013-05-09 18:35:00
1:55 PM,65.3,62.1,89,29.99,10.0,NNE,4.6,-,N/A,,Overcast,30,2013-05-09 18:55:00
2:15 PM,65.3,61.9,89,29.99,10.0,North,5.8,-,N/A,,Overcast,10,2013-05-09 19:15:00
2:35 PM,66.4,62.2,86,29.98,10.0,North,5.8,-,N/A,,Overcast,10,2013-05-09 19:35:00
3:15 PM,69.4,64.0,83,29.96,10.0,North,8.1,-,N/A,,Mostly Cloudy,360,2013-05-09 20:15:00
3:35 PM,69.3,63.7,82,29.96,10.0,North,8.1,-,N/A,,Mostly Cloudy,360,2013-05-09 20:35:00
3:55 PM,69.3,64.4,84,29.95,10.0,NNE,8.1,-,N/A,,Mostly Cloudy,20,2013-05-09 20:55:00
4:15 PM,68.5,63.3,83,29.96,10.0,North,8.1,-,N/A,,Overcast,360,2013-05-09 21:15:00
4:35 PM,68.9,64.0,84,29.95,10.0,North,13.8,-,N/A,,Overcast,10,2013-05-09 21:35:00
4:55 PM,69.1,63.7,83,29.95,10.0,North,12.7,-,N/A,,Mostly Cloudy,360,2013-05-09 21:55:00
5:15 PM,67.6,63.7,87,29.95,10.0,NNE,13.8,-,N/A,,Mostly Cloudy,20,2013-05-09 22:15:00
5:35 PM,69.3,64.2,84,29.95,10.0,North,12.7,-,N/A,,Scattered Clouds,10,2013-05-09 22:35:00
5:55 PM,69.3,63.7,82,29.94,10.0,North,10.4,-,N/A,,Clear,360,2013-05-09 22:55:00
6:15 PM,69.1,63.7,83,29.94,10.0,NE,8.1,-,N/A,,Mostly Cloudy,40,2013-05-09 23:15:00
6:35 PM,69.3,63.9,83,29.94,10.0,ENE,6.9,-,N/A,Thunderstorm,Overcast,60,2013-05-09 23:35:00
6:55 PM,68.9,63.7,83,29.93,10.0,ENE,8.1,-,N/A,,Mostly Cloudy,70,2013-05-09 23:55:00
7:15 PM,69.1,64.2,84,29.94,10.0,ENE,8.1,-,N/A,,Mostly Cloudy,60,2013-05-10 00:15:00
7:35 PM,68.0,64.0,87,29.95,10.0,East,5.8,-,N/A,,Overcast,80,2013-05-10 00:35:00
7:55 PM,67.5,64.4,90,29.95,10.0,ENE,6.9,-,N/A,,Overcast,70,2013-05-10 00:55:00
8:15 PM,66.6,65.3,96,29.94,10.0,ENE,5.8,-,N/A,,Mostly Cloudy,60,2013-05-10 01:15:00
8:35 PM,65.7,65.7,100,29.96,10.0,East,4.6,-,N/A,,Mostly Cloudy,90,2013-05-10 01:35:00
9:15 PM,65.3,65.3,100,29.98,10.0,SE,4.6,-,N/A,,Overcast,140,2013-05-10 02:15:00
9:35 PM,64.9,64.9,100,29.98,10.0,Calm,Calm,-,N/A,,Mostly Cloudy,0,2013-05-10 02:35:00
9:55 PM,63.5,63.5,100,29.98,10.0,NNE,5.8,-,N/A,,Scattered Clouds,20,2013-05-10 02:55:00
10:15 PM,63.5,63.5,100,29.99,10.0,North,4.6,-,N/A,,Mostly Cloudy,360,2013-05-10 03:15:00
10:35 PM,63.5,63.5,100,29.99,10.0,North,3.5,-,N/A,,Mostly Cloudy,10,2013-05-10 03:35:00
10:55 PM,63.0,63.0,100,30.00,10.0,ENE,4.6,-,N/A,,Scattered Clouds,60,2013-05-10 03:55:00
11:55 PM,61.0,61.0,100,30.02,10.0,Calm,Calm,-,N/A,,Clear,0,2013-05-10 04:55:00